Wind_Speed
5 7 9 11 11 11 12 13 16 17 17 18 19 21 22 23 23 23 23 23 23 23 25 26 28 30 32 32 33 33 33 32 33 33 34 35 35 35 35 35 36 37 37 37 36 36 34 32 30 28 26 25 24 23 22 21 21 20 19 18 18 17 16 15 15 15 14 13 13 12 12 12 12 11 11 10 9 9 8 7 7 9 11 12 13
4 5 7 9 10 10 11 12 13 15 16 17 18 20 21 22 23 24 23 23 23 24 24 25 27 29 30 32 32 32 32 32 31 31 32 33 33 34 34 34 35 35 35 35 36 36 36 35 35 34 33 31 30 28 27 26 25 24 23 23 22 21 21 20 20 19 19 19 18 18 17 17 16 15 14 13 13 12 11 10 9 9 11 12 13
3 4 5 7 9 9 9 10 11 14 15 16 17 18 20 21 22 23 23 24 24 24 24 25 26 27 29 30 31 32 32 32 31 30 30 30 31 32 32 33 34 34 35 35 34 34 34 34 33 33 33 32 32 31 30 29 29 28 27 26 25 24 23 22 21 20 20 20 19 18 17 17 16 15 14 13 13 12 11 11 10 10 10 11 10
4 3 3 5 7 8 8 9 10 12 14 16 16 17 18 20 21 22 23 24 24 24 25 25 26 26 27 29 30 31 32 31 31 31 30 29 29 30 30 31 32 33 34 34 34 33 33 33 32 32 31 31 30 30 29 28 27 26 26 25 24 23 23 21 20 19 19 19 18 17 16 16 16 15 15 15 14 14 13 13 12 11 10 10 9
5 4 2 2 5 6 7 7 8 10 13 15 15 15 16 18 20 21 22 23 24 24 25 25 26 26 26 27 29 30 31 31 31 31 30 29 29 29 28 29 30 30 31 31 32 32 31 31 31 31 31 31 30 29 28 27 26 26 25 25 24 24 23 22 21 20 20 20 19 18 18 18 18 17 16 16 16 16 16 14 13 12 11 10 9
6 5 3 1 3 5 5 5 6 8 11 13 14 14 15 16 18 19 20 22 23 24 24 25 26 26 26 26 27 29 30 31 31 31 30 30 29 28 28 28 29 29 28 29 29 29 29 29 29 29 29 30 29 29 28 27 26 26 26 25 25 24 24 23 22 21 21 21 20 20 20 19 18 18 17 16 16 16 15 15 14 13 11 10 9
7 5 4 2 1 4 4 3 4 6 8 11 13 13 13 15 16 18 19 20 22 23 24 25 25 26 26 26 26 27 28 29 31 31 31 30 30 29 28 28 28 28 28 28 27 27 27 27 27 27 27 27 27 27 26 26 25 25 25 25 24 23 22 21 20 20 20 19 19 19 19 19 19 18 17 17 16 15 14 14 13 12 11 10 9
8 6 5 3 1 3 3 2 3 4 6 9 11 11 12 13 15 16 17 18 20 21 23 24 25 25 26 26 26 26 26 27 29 30 30 30 30 30 29 29 29 29 28 28 27 26 25 25 25 24 24 24 24 24 24 24 23 23 23 22 22 21 20 19 18 18 18 18 17 17 17 17 17 17 17 16 16 16 15 14 13 12 11 10 9
9 8 7 6 3 2 3 1 1 3 5 6 8 9 10 11 13 15 16 17 18 20 21 23 24 25 25 26 27 26 26 26 27 28 29 30 30 30 30 30 30 30 29 28 27 26 26 25 24 24 23 23 23 22 22 22 21 21 21 20 20 19 18 17 17 17 17 16 16 15 15 15 15 15 15 15 15 15 15 14 14 13 12 11 10
11 10 10 8 6 3 4 3 1 2 4 5 5 7 8 9 11 13 15 16 17 18 19 21 22 23 24 25 26 27 26 26 27 27 27 28 29 29 30 31 31 31 31 30 29 28 27 26 25 24 24 23 23 22 22 21 20 20 19 19 18 18 17 16 15 15 15 15 15 14 14 13 13 13 14 14 14 14 14 13 13 12 12 11 10
14 13 13 11 9 6 5 5 3 3 3 4 4 4 6 7 9 11 13 14 15 16 17 18 20 21 22 23 25 26 26 26 27 26 26 26 27 28 29 30 31 31 32 31 30 30 29 29 28 27 26 25 24 23 22 22 21 20 19 18 18 17 16 15 14 14 14 14 13 13 12 12 12 12 12 13 13 13 13 12 11 11 11 10 9
17 16 15 13 11 9 8 8 7 5 5 4 3 2 4 5 7 8 10 12 13 14 14 15 16 18 19 21 22 24 25 26 26 26 26 26 26 27 28 29 30 31 32 31 31 31 31 30 29 29 28 27 26 25 24 23 22 21 20 19 18 17 16 15 14 14 13 13 12 12 11 11 11 11 11 11 12 12 12 12 11 10 9 9 9
19 17 16 14 12 10 9 10 9 8 6 5 4 2 3 4 5 6 8 9 10 11 12 13 14 15 16 18 20 21 22 23 24 24 25 25 26 26 27 28 28 29 30 31 31 30 30 30 30 29 29 28 27 26 25 24 23 22 21 20 18 17 16 15 14 14 13 13 12 12 11 11 11 11 11 11 11 11 11 11 11 10 9 9 9
22 19 17 16 14 12 10 11 11 9 7 6 5 2 2 3 5 5 5 6 7 9 10 11 11 12 13 15 16 18 19 20 21 22 23 24 25 26 26 27 27 28 28 29 29 29 29 30 29 29 29 28 27 27 26 25 24 23 22 20 19 18 17 16 15 14 13 13 13 12 11 11 11 11 11 11 11 11 11 11 11 10 10 10 10
26 23 20 19 18 15 13 11 10 8 7 7 6 4 2 1 3 3 3 4 4 6 8 9 9 9 10 11 13 15 16 17 18 19 20 22 23 24 25 26 26 27 27 27 27 28 28 28 28 28 28 28 28 27 26 25 25 24 23 21 20 19 18 17 16 15 15 14 14 13 13 12 12 12 12 12 12 12 12 11 11 11 11 12 12
29 26 24 22 21 19 15 12 10 9 8 8 7 7 6 3 0 1 1 1 2 3 5 6 7 7 8 8 9 11 14 15 16 17 18 19 20 21 22 23 24 25 25 26 26 26 26 26 27 27 27 28 28 27 27 26 26 25 24 23 22 21 20 19 18 17 17 16 16 16 15 15 15 15 14 14 14 14 13 13 13 13 13 14 15
31 29 26 25 23 21 18 15 13 11 11 11 11 10 10 8 4 2 1 1 1 2 3 4 5 5 5 6 7 9 11 13 14 15 16 17 18 19 19 20 21 22 23 24 24 25 25 25 25 26 26 26 27 27 27 27 26 26 25 24 23 22 22 21 20 20 20 19 19 19 18 18 18 18 17 17 16 16 16 15 15 15 16 16 17
33 32 29 27 25 23 21 18 16 15 14 14 14 13 12 11 8 5 3 3 2 2 3 3 4 4 4 4 5 7 9 11 13 13 14 15 16 17 17 18 19 20 21 22 23 24 25 25 25 25 26 25 26 26 27 27 27 26 26 25 25 24 24 23 23 22 22 22 22 22 21 21 21 21 20 20 19 18 18 18 18 18 18 19 19
36 34 32 29 27 25 23 21 19 18 16 16 16 15 14 13 11 9 7 6 5 4 4 4 4 4 4 4 3 5 8 10 11 12 12 12 13 15 16 16 17 18 19 20 21 22 23 25 25 25 26 25 25 25 25 26 26 26 26 26 26 25 25 25 24 24 24 24 24 24 24 24 23 23 23 22 22 21 20 20 20 20 21 21 22
39 36 34 31 29 28 26 24 22 20 19 18 17 17 16 15 14 13 11 10 10 9 8 7 5 5 5 5 4 4 5 7 9 10 11 11 11 12 13 14 16 17 18 19 20 22 23 24 25 25 26 26 25 25 25 24 25 25 25 25 25 25 25 25 25 25 25 25 26 26 26 25 25 25 24 24 24 23 23 23 23 23 24 24 25
41 38 35 33 32 31 29 27 25 24 23 21 20 19 18 17 16 15 14 14 13 13 12 11 8 6 5 6 7 7 5 4 6 7 8 8 9 10 12 13 14 15 17 18 19 21 22 22 23 24 24 25 25 24 24 23 23 23 23 24 24 24 25 25 25 25 25 26 26 26 26 26 26 25 25 25 25 25 25 26 26 26 27 27 28
42 40 37 34 33 32 31 29 28 27 26 25 22 20 19 19 18 16 15 15 15 15 14 13 12 9 8 8 10 11 10 7 3 4 6 7 7 9 11 12 13 14 15 16 17 18 20 21 21 22 22 22 23 23 23 22 22 22 22 22 22 23 23 24 24 24 24 25 25 24 25 25 25 25 25 25 26 26 27 27 27 28 28 29 30
43 41 38 35 34 33 33 32 31 31 30 28 25 21 20 20 20 19 17 16 16 15 13 12 13 12 11 11 11 12 14 12 8 4 4 6 7 8 9 11 13 14 14 14 16 17 17 18 19 20 20 20 21 21 21 21 21 20 20 20 21 21 22 22 23 23 23 23 23 23 23 23 23 23 24 24 25 26 26 27 28 28 28 29 30
46 43 40 38 36 36 36 36 35 34 32 31 27 24 23 23 23 22 20 18 17 14 12 12 12 11 12 12 11 12 14 14 12 9 4 5 7 7 8 10 10 12 13 13 14 15 16 17 18 18 18 18 19 19 19 20 19 19 19 19 19 19 20 21 21 21 21 21 21 21 21 21 21 21 22 23 24 25 26 26 27 27 27 28 29
48 45 42 41 40 39 38 38 38 37 36 35 32 28 25 25 27 26 23 21 19 16 13 12 11 11 12 12 11 10 12 14 14 13 9 3 5 6 8 9 9 9 10 11 12 13 14 15 17 17 17 17 17 18 18 18 18 18 17 17 17 17 18 19 19 19 19 19 19 19 19 18 18 19 19 20 21 23 24 25 26 26 26 26 27
49 46 44 42 42 41 39 38 39 40 40 40 38 34 30 30 31 29 27 24 23 20 17 14 12 12 13 13 12 12 13 16 15 14 13 9 5 4 5 7 8 8 9 10 11 12 12 13 14 16 17 16 16 17 17 18 17 16 16 15 15 15 15 16 17 17 17 17 17 17 17 16 16 16 17 18 19 20 21 23 24 24 24 24 24
50 49 47 46 45 42 40 39 40 41 43 44 42 38 34 33 34 32 30 28 26 25 22 18 16 15 16 15 15 16 17 18 15 13 14 14 11 8 6 6 8 8 8 9 10 10 10 11 12 13 15 16 16 17 16 17 16 15 14 14 13 13 13 13 14 15 15 15 15 15 14 14 13 13 13 14 16 18 19 20 22 23 23 23 22
54 51 50 51 50 45 42 42 42 42 45 46 45 42 38 35 33 32 32 31 29 27 26 23 20 19 18 16 15 17 18 18 17 14 15 15 15 14 12 12 12 9 8 9 9 9 9 9 10 11 13 14 15 16 16 16 16 16 14 13 12 11 11 11 11 11 12 12 12 12 12 11 10 10 10 11 12 14 16 17 19 20 21 22 21
58 54 53 54 55 51 47 45 44 46 48 47 44 43 41 37 35 34 35 35 33 29 27 26 25 24 21 15 13 17 20 21 20 17 14 14 16 17 17 17 17 15 12 9 8 8 9 10 10 10 10 11 12 14 15 14 15 15 15 14 12 11 10 10 9 9 8 8 8 9 8 8 7 7 6 7 8 10 12 14 16 18 19 20 20
60 59 56 55 56 55 53 50 47 48 51 50 46 44 42 39 37 37 37 38 36 32 30 30 32 32 27 20 16 19 23 24 22 20 17 16 17 18 18 19 20 19 16 12 10 9 9 11 13 12 10 10 10 11 13 13 13 14 15 15 14 12 10 9 9 7 6 5 5 5 5 4 4 3 3 3 4 6 8 9 12 14 15 16 17
63 62 60 59 57 56 56 55 52 51 51 49 48 47 45 43 42 41 40 38 36 34 33 34 36 35 30 25 22 23 25 24 22 23 22 20 20 20 19 20 20 19 16 14 13 12 12 14 16 16 14 11 9 10 11 12 13 14 14 15 15 14 12 10 9 8 6 5 3 2 1 1 0 1 1 0 1 2 4 5 7 9 11 12 13
66 65 65 65 61 57 56 54 52 56 57 52 51 50 48 47 47 46 44 42 38 36 35 34 35 34 30 27 25 24 25 26 24 24 25 24 25 24 22 21 20 18 15 15 16 15 15 15 17 18 16 13 11 10 11 11 13 14 15 15 16 16 14 12 10 9 8 7 5 5 4 3 3 3 3 4 4 4 4 5 6 6 8 9 10
70 69 69 69 65 60 60 56 53 58 62 59 57 55 52 51 51 50 51 48 43 40 39 36 35 34 30 28 27 26 27 28 26 25 26 26 27 28 27 24 21 19 18 18 18 17 16 16 16 16 16 15 13 12 13 13 13 14 15 15 16 16 16 15 14 11 10 9 8 8 8 7 7 7 7 7 7 8 8 8 9 9 9 10 10
78 74 72 73 72 70 70 66 60 59 63 64 61 59 56 55 55 55 56 54 49 46 45 43 40 37 32 30 31 31 31 31 29 27 26 26 28 31 31 28 24 22 22 21 20 18 17 15 14 16 17 17 16 14 15 16 15 15 16 16 16 17 17 17 17 15 13 12 11 11 11 11 11 11 11 11 11 11 12 12 12 13 13 13 13
88 81 75 74 77 78 78 76 70 64 63 64 63 62 60 57 58 60 60 58 56 52 49 49 46 42 38 36 37 37 36 34 31 29 28 27 29 33 35 32 28 27 26 25 23 22 19 15 14 17 20 19 19 19 19 19 18 18 19 19 19 19 19 19 19 18 16 14 14 13 12 13 14 14 14 14 15 15 15 15 15 16 16 16 16
96 92 87 81 80 81 81 81 78 71 67 65 63 64 64 60 60 63 63 61 59 55 52 51 49 45 41 40 41 41 39 35 31 29 28 28 30 35 38 36 33 31 30 28 26 24 21 17 16 18 21 22 21 22 23 21 20 20 21 22 22 22 22 20 20 20 19 18 16 15 14 14 15 16 16 17 19 19 19 19 18 19 19 19 19
101 100 98 94 89 87 86 84 82 79 76 71 67 65 66 65 63 64 64 64 61 56 53 52 51 48 45 45 46 45 40 37 36 34 33 33 35 38 39 38 36 35 33 30 27 25 21 19 19 20 22 24 22 23 24 24 23 22 23 24 25 26 25 24 22 21 22 22 21 19 18 17 16 17 18 19 21 23 23 23 22 22 22 22 21
106 104 104 102 99 95 92 89 87 85 83 79 74 70 68 68 68 67 67 67 65 61 56 54 54 53 51 52 53 51 47 45 44 43 41 40 40 41 41 41 40 37 34 31 29 28 25 22 22 23 24 24 23 24 26 28 27 26 26 26 28 29 29 28 26 24 24 24 24 23 22 21 19 18 19 21 23 25 26 26 25 25 24 23 22
110 109 108 107 105 103 100 97 93 91 88 85 82 78 74 72 72 72 72 71 70 68 64 61 59 59 57 57 59 58 56 53 51 49 48 45 44 43 42 44 44 40 35 32 30 30 29 26 25 26 27 25 26 28 29 31 31 31 30 30 31 32 32 32 31 29 28 28 27 27 27 26 24 21 20 21 22 24 26 26 26 26 25 23 22
113 113 111 110 109 108 106 105 102 99 95 92 89 86 83 80 78 78 78 78 77 75 74 71 68 65 63 63 64 64 63 61 58 55 52 50 48 47 46 47 47 43 38 35 34 32 32 31 31 31 30 29 30 32 33 33 34 34 35 35 34 33 33 33 33 33 33 33 33 32 30 30 30 27 25 24 23 24 26 27 26 27 26 25 23
114 114 113 113 112 110 109 108 107 105 103 101 98 95 92 90 87 84 83 83 82 81 80 80 78 75 71 68 68 69 69 67 64 61 59 56 54 54 53 51 51 48 46 45 42 39 36 35 36 36 35 34 32 32 32 33 35 38 39 39 37 35 33 32 33 34 35 35 36 36 33 32 32 31 30 29 28 28 29 29 29 28 28 28 27
113 114 114 113 113 112 111 110 109 108 107 105 104 102 101 99 96 93 89 86 84 82 81 82 83 83 79 75 72 72 73 72 70 67 65 62 60 60 60 59 57 57 57 55 53 49 44 41 40 40 38 36 35 35 35 37 40 43 44 43 41 39 37 35 35 37 38 38 37 37 36 33 32 32 32 32 31 31 32 33 33 32 32 31 30
110 112 113 113 113 113 112 111 110 110 108 107 105 105 104 103 103 101 97 92 88 85 83 83 85 86 85 82 79 77 76 76 75 73 71 69 67 66 67 67 66 66 65 64 62 60 57 53 51 49 46 43 43 46 50 52 53 53 51 48 47 46 43 41 40 40 42 43 41 39 37 36 35 35 34 33 33 33 33 34 35 36 36 36 35
109 110 111 112 112 112 112 111 110 110 109 108 107 106 105 105 105 104 103 100 96 92 89 86 86 87 88 87 85 83 81 80 79 78 77 75 73 72 72 73 74 73 73 71 70 68 67 65 63 61 60 59 59 60 63 63 62 61 57 54 52 50 50 50 47 45 45 46 45 41 39 38 39 41 42 42 41 40 39 38 38 38 38 38 38
110 109 109 110 110 111 111 111 111 111 110 110 109 108 108 107 107 106 106 105 104 101 98 94 90 89 89 89 89 88 87 85 83 82 81 80 78 77 77 78 79 80 79 78 77 76 75 74 72 71 71 71 71 70 70 69 68 66 62 59 57 56 55 56 55 53 51 50 49 47 45 43 45 47 49 50 49 48 46 43 43 42 41 40 39
112 110 110 110 110 110 111 111 112 112 112 112 111 110 110 109 109 108 108 108 107 107 105 103 100 96 94 93 92 92 92 92 90 88 86 84 83 83 83 83 84 84 85 85 85 84 83 82 81 79 78 77 77 76 75 73 72 70 68 66 64 62 61 60 60 60 59 58 58 58 57 56 55 54 53 53 52 50 46 44 43 44 45 45 43
117 115 114 113 112 112 111 111 111 112 112 112 112 112 111 111 110 110 109 109 108 108 108 107 106 105 102 100 99 98 97 97 96 94 92 90 89 89 89 89 89 89 89 90 90 90 90 89 88 86 84 82 81 80 79 78 76 75 73 71 69 68 67 66 65 64 64 64 64 65 66 66 65 62 61 59 57 54 50 46 45 44 44 46 45
120 119 119 117 116 115 114 113 112 112 112 112 112 112 112 112 112 112 111 111 110 110 109 109 108 108 107 106 105 104 103 102 101 100 99 97 95 95 94 94 94 93 93 94 94 95 95 94 93 92 90 88 86 84 83 82 81 79 77 76 74 73 72 71 70 69 68 68 67 68 69 70 70 68 67 65 64 61 57 54 52 50 48 48 47
123 123 122 121 120 119 117 116 115 114 113 113 112 112 112 112 113 113 113 112 112 111 111 110 110 109 108 108 107 107 107 107 106 106 105 104 102 101 100 99 99 98 98 98 98 98 98 98 98 97 96 94 92 90 89 87 86 84 83 82 80 79 77 76 74 73 72 71 71 70 70 70 71 72 71 70 69 68 66 64 63 61 58 56 55
126 126 125 125 124 122 120 119 118 116 115 114 114 113 113 112 112 113 113 113 113 113 112 112 111 111 110 110 109 109 109 110 110 110 110 109 108 107 106 105 104 103 103 102 102 101 102 102 102 101 100 99 98 96 95 93 91 90 88 87 85 83 81 79 78 77 76 75 74 74 73 73 73 74 74 74 73 72 71 71 70 69 67 65 63
126 127 127 127 126 124 123 122 121 120 118 117 116 115 114 113 113 113 113 113 113 113 113 113 113 112 112 112 112 111 111 111 111 112 113 113 113 112 112 111 110 109 108 107 107 106 105 105 105 105 105 104 103 102 100 99 97 95 93 90 88 86 84 83 82 80 79 78 78 77 77 76 76 76 77 77 77 76 75 74 73 72 71 69 68
Wind_Direction
6 23 33 36 34 35 39 46 50 50 50 48 45 43 43 44 45 47 48 49 49 49 51 53 55 57 59 59 59 59 60 61 63 66 68 69 70 71 72 74 76 75 75 76 77 78 79 80 82 83 84 84 85 85 86 86 86 85 84 83 81 79 77 75 73 72 70 68 65 62 60 58 57 55 56 60 65 74 86 100 111 112 114 124 133
343 15 27 38 37 32 31 39 49 52 52 51 48 46 45 46 47 47 47 48 48 49 50 52 54 56 58 60 61 60 60 60 62 64 67 69 70 71 72 73 75 76 76 76 76 77 77 78 78 79 79 79 80 80 81 82 82 82 82 81 80 79 77 75 73 72 71 70 68 67 67 67 66 66 67 70 75 83 90 95 97 100 111 124 131
313 5 19 38 41 34 27 29 42 51 53 53 51 50 48 48 49 49 48 47 47 48 50 51 52 54 56 58 60 61 61 60 60 61 63 67 69 71 72 73 74 75 76 76 76 77 77 77 77 77 77 77 77 77 77 77 77 78 78 78 78 77 76 74 73 72 72 72 71 71 70 70 69 68 70 72 75 79 82 82 82 86 99 113 120
283 327 2 36 42 38 29 24 31 45 53 54 52 52 51 50 51 52 50 49 48 48 49 51 52 53 54 55 58 60 61 61 60 60 60 62 65 68 71 72 73 73 74 75 76 76 76 77 77 78 78 78 77 77 76 76 76 76 76 76 76 75 75 74 73 73 73 74 73 73 73 73 72 71 72 74 75 75 74 74 76 80 85 92 97
263 279 306 29 45 42 36 25 23 36 50 54 51 51 52 52 53 53 53 52 51 49 49 50 51 52 53 54 55 58 59 60 61 60 59 59 61 64 67 70 71 72 72 73 74 75 75 75 76 77 77 77 76 76 76 75 75 74 74 74 73 73 72 72 71 70 71 71 70 69 68 69 70 70 71 73 75 76 75 75 75 76 77 78 76
251 259 270 342 53 49 44 29 20 28 45 53 52 49 50 53 54 54 54 55 54 52 50 51 51 52 53 53 55 56 57 58 59 60 59 58 58 60 63 66 69 70 71 71 72 72 73 73 73 74 74 75 74 74 74 74 73 72 71 71 70 70 70 70 69 68 67 66 65 63 63 62 62 63 64 67 70 72 75 76 76 76 74 71 67
243 243 245 245 58 62 55 32 16 18 38 52 54 48 45 49 55 56 55 55 55 54 52 52 52 52 53 53 54 56 56 57 58 58 59 58 57 58 59 62 65 67 68 68 68 69 69 70 71 71 72 73 73 72 71 70 70 69 69 68 68 68 68 67 66 65 64 63 62 62 62 61 59 57 57 58 60 62 64 66 67 68 67 65 62
243 239 227 226 222 85 80 35 5 2 23 46 54 51 43 43 52 56 56 55 55 55 54 53 53 53 53 53 54 55 56 57 58 58 57 57 57 56 56 58 61 63 65 66 66 65 66 67 67 67 68 69 70 70 70 68 67 66 65 65 65 65 64 63 62 61 60 59 58 57 58 60 59 58 56 55 55 55 54 54 52 50 48 46 44
236 231 215 211 219 129 119 114 347 339 359 29 49 54 46 40 46 52 56 56 55 54 54 54 54 53 54 54 54 54 54 55 58 58 57 57 57 56 55 56 58 60 62 64 65 65 64 64 63 63 63 64 65 66 66 66 66 65 64 64 63 62 61 59 58 57 56 56 55 54 54 54 56 57 56 55 54 54 53 51 48 44 39 35 31
227 219 208 204 209 188 157 164 217 295 329 355 27 50 52 43 42 47 51 54 55 54 53 53 54 54 54 54 54 54 53 53 55 57 57 57 57 57 56 55 56 58 60 61 63 64 64 64 63 62 61 60 60 60 61 62 62 62 62 62 61 61 59 58 57 57 56 54 54 53 53 52 52 53 54 53 52 52 53 51 48 45 40 36 31
220 209 201 198 199 193 177 177 193 230 277 310 341 32 55 49 42 43 46 50 53 54 53 51 52 52 53 53 53 53 53 52 52 54 55 56 57 57 56 56 55 57 58 58 59 61 62 63 63 62 61 60 59 58 58 57 57 57 57 57 57 57 56 55 55 55 55 55 54 53 53 51 50 49 49 50 50 50 51 49 46 44 40 35 29
219 211 204 199 194 192 187 185 190 205 231 263 295 357 46 54 48 43 42 44 48 53 54 51 49 50 50 51 52 52 52 51 50 51 52 53 55 56 56 56 55 56 57 57 57 58 60 61 61 62 62 61 60 59 58 58 56 55 54 53 53 52 51 50 51 51 51 51 52 51 49 49 49 48 47 48 49 49 48 46 41 38 35 30 24
218 214 209 204 198 198 195 192 192 196 213 237 258 310 32 51 53 45 40 39 39 45 51 52 49 48 48 48 49 49 50 50 50 49 48 50 51 53 54 55 54 55 56 57 56 57 58 59 60 60 61 61 60 60 60 59 58 57 56 54 53 53 51 50 49 49 49 48 47 47 44 43 44 45 45 45 45 45 44 40 34 28 27 25 22
217 211 209 208 206 208 207 202 199 194 202 224 241 263 4 38 49 48 39 33 31 33 42 49 50 48 46 45 45 46 47 48 48 47 47 47 48 49 51 52 53 53 55 56 56 56 57 58 59 59 60 60 60 60 60 60 60 58 58 57 57 56 55 55 54 52 51 49 46 44 41 39 39 40 41 41 40 39 37 34 28 22 21 21 20
218 211 210 211 210 212 216 214 211 204 200 211 231 249 273 2 42 48 36 25 21 24 30 38 46 48 46 43 43 44 45 45 46 46 46 45 46 46 47 48 50 51 52 53 55 56 56 56 58 58 59 60 60 60 59 59 60 59 58 58 57 57 57 57 56 55 54 52 49 46 44 42 41 40 39 40 39 38 37 34 29 25 23 24 24
222 215 213 215 213 212 216 219 221 221 215 213 222 238 248 253 293 52 30 10 5 14 21 25 33 44 49 50 48 47 46 46 45 45 44 45 46 46 46 45 46 47 48 49 51 52 54 55 55 56 56 57 58 58 58 58 58 58 58 58 57 56 56 55 54 54 54 53 52 50 49 48 48 47 45 44 43 43 43 40 38 36 33 33 34
223 217 214 216 216 214 214 217 222 225 223 219 217 225 239 241 232 226 251 294 337 358 13 14 13 22 43 57 63 61 54 47 46 45 43 42 43 45 46 45 45 44 43 45 46 47 49 51 51 53 53 54 55 56 56 56 56 57 56 57 56 56 55 54 53 53 53 53 53 52 51 51 51 52 51 50 48 48 47 47 46 46 44 43 44
220 216 214 216 216 216 216 217 220 225 226 222 218 218 230 239 238 237 255 272 295 317 333 345 346 349 15 43 63 74 70 57 48 45 44 41 40 40 42 43 45 45 42 42 42 42 43 45 46 48 49 50 51 52 54 54 54 54 54 54 54 54 54 54 53 53 53 53 52 52 52 51 51 52 53 52 52 51 50 51 52 53 54 54 55
219 215 214 215 216 217 219 220 221 225 228 226 222 219 224 234 239 241 250 265 273 275 281 290 300 314 337 360 24 60 71 67 55 46 44 43 41 37 36 36 39 43 44 41 40 39 39 40 40 41 43 45 46 48 50 52 52 52 52 52 52 52 52 52 52 51 51 51 50 50 50 50 50 51 52 53 54 54 54 55 57 61 63 65 68
219 217 215 215 217 218 220 223 224 228 233 233 228 223 222 228 235 237 242 252 259 260 257 256 262 280 299 312 328 2 42 61 60 51 44 43 43 41 36 33 31 35 40 40 39 39 38 37 37 36 37 39 41 43 44 47 49 49 50 50 50 51 50 50 50 49 49 49 49 49 49 49 50 51 52 54 56 58 59 62 64 68 71 75 78
219 219 218 216 217 219 220 222 225 230 235 236 232 228 226 229 234 237 239 244 250 254 258 261 261 264 283 307 321 325 336 24 57 58 49 41 40 41 38 34 29 29 32 34 35 37 37 36 35 34 34 34 35 37 39 40 43 45 47 48 48 49 49 48 48 48 48 48 49 49 49 50 52 53 54 56 58 62 64 67 71 74 78 82 86
219 220 220 219 218 220 221 221 224 229 233 236 236 233 231 233 237 240 239 242 246 252 260 269 275 284 299 310 318 317 310 311 352 57 62 51 40 38 37 33 29 27 29 30 30 31 34 35 35 33 33 32 31 33 34 34 36 38 42 45 46 47 48 47 47 46 46 47 49 50 51 53 55 57 59 61 63 66 69 72 74 79 84 89 92
220 217 218 220 221 222 221 220 220 223 229 234 236 236 235 235 235 237 237 235 239 247 256 265 273 285 294 297 304 311 308 302 302 321 41 53 45 43 40 33 27 24 24 27 27 26 28 31 32 32 31 30 30 30 31 32 32 32 34 38 42 45 46 46 46 45 45 46 47 49 52 56 59 61 63 66 69 71 74 76 79 83 88 93 97
219 217 217 220 224 225 224 223 221 221 225 228 232 235 238 238 235 235 236 233 233 240 250 257 263 267 272 280 289 298 305 306 301 295 310 40 40 36 38 33 27 23 18 19 22 22 23 26 28 29 28 27 27 27 29 30 31 31 30 31 36 40 43 45 45 45 45 45 46 47 50 56 61 65 68 71 74 77 80 82 85 88 93 97 101
221 220 221 224 226 228 229 229 227 226 226 229 232 234 237 238 237 237 239 236 234 238 246 253 257 257 258 265 271 280 295 301 296 287 280 310 18 12 17 19 20 21 16 12 13 13 16 21 23 24 24 23 24 24 27 29 30 31 30 29 32 35 39 43 44 44 44 45 46 47 48 53 59 66 70 74 78 82 86 89 92 94 98 102 105
221 222 222 224 225 227 230 233 234 232 232 234 236 235 234 236 237 239 243 243 242 242 243 245 252 259 260 261 267 276 284 286 285 281 275 271 287 315 348 1 2 8 7 2 4 5 9 15 17 18 18 17 17 19 23 26 28 29 29 28 30 33 36 41 43 44 43 43 44 46 47 50 55 64 71 77 82 86 90 94 97 101 104 106 109
221 223 223 223 224 224 228 233 234 233 234 235 236 235 233 235 238 239 242 245 245 246 244 240 245 257 262 263 270 277 278 280 279 273 269 267 265 268 285 310 321 340 354 350 350 355 1 7 9 11 14 13 11 11 16 21 22 23 24 24 26 30 33 38 42 45 45 42 41 42 44 47 51 59 69 78 86 92 96 99 102 106 110 113 114
221 225 225 224 224 222 223 229 233 233 234 234 234 234 233 234 237 240 240 240 241 243 243 241 246 254 258 262 273 277 273 271 269 262 259 259 258 259 265 272 283 300 325 335 338 341 348 356 359 1 6 9 9 7 8 14 16 15 15 17 19 22 26 32 38 44 46 45 43 42 42 45 49 55 67 80 92 100 104 107 110 113 117 119 121
218 222 222 223 224 222 219 223 229 232 233 232 232 233 232 232 235 239 240 239 239 239 239 244 251 252 250 254 267 272 266 260 257 254 251 249 248 252 255 258 263 273 287 306 321 328 333 338 340 344 353 1 4 4 3 5 8 7 5 6 8 11 13 18 25 35 42 44 45 45 43 43 47 54 67 84 98 109 115 118 120 123 125 127 128
214 216 218 221 225 223 221 221 223 227 231 232 232 231 230 230 232 235 236 236 238 237 234 238 245 246 245 243 246 251 252 252 249 245 242 241 238 239 243 246 250 256 265 282 298 309 315 322 325 325 330 343 351 355 356 355 355 356 355 355 357 360 1 1 4 11 22 30 35 44 48 44 42 46 60 86 107 122 129 131 134 136 137 138 139
213 213 215 220 224 224 223 223 222 224 228 231 230 229 227 226 227 228 229 230 231 230 227 229 234 240 242 241 239 241 245 249 244 236 236 243 245 241 237 236 240 246 255 269 280 287 294 306 315 313 307 314 330 339 343 344 343 344 346 345 345 347 349 348 346 347 348 349 345 346 12 39 7 332 313 250 192 173 166 161 158 157 156 156 157
214 213 214 218 222 223 222 222 223 224 225 227 226 224 223 223 224 225 226 225 223 221 220 221 226 233 239 239 240 244 248 249 243 231 229 238 249 252 247 243 245 251 259 266 269 272 280 293 307 309 300 294 302 316 323 328 332 334 336 336 335 335 336 336 333 328 325 321 310 295 279 260 248 245 246 250 247 243 231 219 208 198 190 186 183
214 215 215 216 218 219 219 219 221 223 223 223 223 223 222 223 224 224 225 224 219 214 214 215 219 225 233 237 238 240 243 243 239 230 227 233 246 254 254 250 251 257 263 263 260 262 267 276 291 303 301 292 288 296 306 310 317 323 325 326 328 326 325 325 324 319 312 305 298 290 281 271 261 254 250 249 247 245 244 239 233 226 221 218 214
217 217 217 219 220 221 222 221 222 223 222 221 221 221 222 224 224 223 224 224 220 215 215 218 219 219 223 230 233 236 240 239 235 230 227 230 240 249 251 249 248 253 257 254 249 253 258 263 273 286 291 289 283 287 296 301 302 306 310 313 317 320 318 315 314 313 310 303 294 288 283 276 268 261 257 254 252 249 246 244 243 239 235 233 232
220 218 219 221 222 224 226 225 224 223 221 219 218 219 220 222 223 223 223 224 223 221 221 223 225 223 222 224 231 237 240 237 235 235 232 232 238 244 246 247 248 252 253 247 244 249 255 259 263 269 273 276 278 283 289 294 294 295 298 301 305 309 311 310 306 304 303 301 296 289 283 277 273 269 265 261 257 254 251 249 248 247 245 244 244
225 222 221 222 222 223 226 227 226 223 220 217 217 217 217 218 219 221 222 223 223 224 224 225 227 227 224 224 229 235 234 231 231 233 233 232 235 240 242 244 247 250 248 243 243 248 250 253 258 265 266 264 271 281 284 287 290 291 291 294 296 297 300 302 301 298 293 292 292 289 284 279 274 272 271 268 263 259 255 253 253 252 252 251 252
228 226 225 224 224 224 225 227 227 225 222 220 219 218 217 217 217 218 220 221 221 223 224 225 228 228 225 223 225 226 225 222 221 220 220 223 230 237 243 243 244 246 244 241 243 247 245 245 252 262 264 261 266 278 279 278 285 289 288 289 289 289 290 292 293 291 287 285 285 285 282 279 275 272 269 268 267 264 260 257 256 256 255 255 257
229 229 228 227 226 226 226 227 227 226 225 224 222 220 219 219 219 219 219 220 221 222 224 227 230 230 226 222 221 221 218 217 219 219 220 224 232 239 243 242 239 239 238 238 243 247 247 244 244 250 256 258 262 268 270 273 280 286 287 286 285 285 285 285 285 283 281 281 282 285 283 279 275 272 268 266 267 267 265 263 262 261 260 259 260
229 230 230 230 230 229 228 228 227 227 227 228 227 226 225 225 224 223 223 222 224 226 228 229 231 231 229 225 221 221 220 219 220 223 224 227 234 240 241 238 235 232 230 233 240 246 249 247 240 240 246 251 255 257 261 268 276 283 286 286 284 283 282 281 280 278 275 275 278 282 284 280 275 271 269 269 271 271 271 269 267 266 265 263 262
230 231 231 232 232 232 231 231 230 230 230 230 231 231 232 232 231 230 230 229 230 232 234 234 232 232 233 230 225 223 223 223 224 226 228 231 235 238 238 234 231 229 231 236 241 245 246 243 237 235 236 240 249 255 258 262 270 278 284 286 286 285 284 282 280 277 274 273 274 277 280 278 274 271 269 268 271 274 275 275 273 271 270 267 263
232 233 233 234 234 235 235 234 234 234 233 233 234 234 235 236 236 236 235 235 236 237 238 238 236 234 234 234 230 227 226 227 228 229 233 236 237 237 235 233 231 233 238 244 247 247 244 240 237 236 233 232 239 249 257 262 267 274 279 282 282 284 285 285 282 279 276 273 271 273 276 275 272 272 271 269 268 271 274 277 278 278 277 275 271
234 234 235 235 236 236 236 237 237 237 236 236 236 236 237 238 239 239 238 237 237 238 238 239 239 238 237 236 235 232 230 230 231 232 235 239 239 238 237 235 234 237 243 247 250 250 247 242 239 238 235 231 233 242 253 261 266 269 271 272 273 274 276 277 277 278 276 273 269 268 270 271 270 271 273 272 271 270 272 275 277 279 280 280 279
235 235 235 236 237 237 238 238 238 238 238 238 238 238 238 238 239 239 239 238 237 237 238 238 239 240 240 239 238 237 235 233 233 234 237 239 241 241 241 240 238 240 243 247 250 252 252 251 248 245 242 240 242 250 258 263 266 267 267 266 265 265 265 266 268 271 272 272 270 266 264 265 267 268 270 272 272 272 272 273 275 277 277 279 279
235 235 235 236 237 237 238 238 239 239 239 239 239 239 239 239 239 239 239 239 237 237 237 238 239 240 241 241 240 239 238 237 237 237 238 239 240 242 243 244 244 245 246 248 250 252 254 256 256 255 253 252 253 257 261 264 266 267 266 265 264 263 262 261 261 264 267 269 270 267 264 265 267 269 270 270 271 272 272 273 274 274 275 277 278
234 235 236 236 237 237 238 238 238 239 239 239 239 239 239 239 240 240 240 240 239 238 238 239 239 239 241 242 242 241 241 240 240 240 240 240 241 242 243 245 247 249 250 250 251 253 255 257 258 259 259 259 259 260 261 262 264 265 266 266 266 265 263 261 259 259 261 263 265 266 266 267 270 272 272 271 271 273 273 272 272 271 270 272 275
234 235 235 236 237 237 237 238 238 238 239 239 240 240 240 240 240 241 241 241 241 241 241 241 241 240 241 242 243 243 243 242 242 242 242 242 242 243 244 245 247 249 250 252 253 255 256 258 259 260 261 261 262 262 262 263 264 265 266 267 266 266 266 264 261 259 258 258 260 262 264 266 268 270 270 271 272 274 274 272 271 271 270 269 269
236 235 235 236 236 237 238 238 238 238 239 239 240 240 240 241 241 241 241 242 242 242 242 242 242 242 242 242 242 242 243 243 243 242 242 242 243 244 245 245 246 247 249 251 253 255 257 258 259 260 260 261 262 263 264 264 265 266 266 267 267 267 267 266 264 262 259 258 258 259 262 264 266 266 267 268 269 271 271 269 270 271 271 268 265
237 237 236 236 236 237 237 238 238 239 239 239 240 240 240 241 241 241 242 242 242 242 243 243 243 244 243 243 242 242 242 243 243 243 242 242 243 243 245 246 246 247 249 250 252 254 255 257 258 259 260 261 262 263 264 265 266 266 267 267 268 268 267 267 265 263 261 260 259 258 259 261 263 264 265 265 266 266 266 267 267 269 270 268 265
237 237 237 237 237 237 237 238 238 239 240 240 240 240 241 241 241 242 242 243 243 243 243 243 244 244 244 244 243 243 243 243 243 244 244 244 243 244 244 245 246 247 248 250 252 253 254 256 257 258 259 260 261 262 263 265 266 266 267 267 268 267 267 266 265 264 263 261 260 259 259 260 261 263 264 264 264 264 264 265 265 266 267 267 266
237 237 237 237 237 237 238 238 239 239 240 240 241 241 241 241 242 242 243 243 243 244 244 244 244 244 244 245 245 244 244 244 244 244 245 245 245 246 245 246 246 247 248 249 251 252 254 255 256 257 258 259 261 262 263 265 266 266 266 267 266 266 266 265 264 264 263 262 261 261 260 260 260 261 262 263 264 264 265 265 265 266 266 266 265
238 238 238 239 239 239 239 239 240 240 241 242 242 242 242 243 243 243 243 244 244 244 245 245 245 245 245 245 245 245 245 245 245 245 246 246 247 247 248 248 248 248 248 249 250 252 253 255 256 257 259 260 261 262 263 264 265 266 266 266 266 266 265 265 264 263 263 262 262 262 262 261 261 261 262 263 263 264 264 265 265 266 266 266 266
Height
11018 11018 11018 11018 11017 11017 11016 11016 11016 11016 11016 11015 11014 11013 11012 11011 11010 11009 11008 11006 11005 11004 11002 11001 10999 10997 10996 10994 10993 10991 10990 10989 10988 10986 10985 10984 10983 10982 10981 10980 10979 10978 10978 10977 10976 10976 10975 10976 10976 10976 10976 10976 10976 10976 10976 10976 10976 10976 10976 10976 10977 10977 10977 10977 10977 10976 10976 10976 10976 10975 10975 10975 10975 10975 10974 10974 10974 10973 10973 10973 10973 10972 10972 10972 10973
11018 11018 11018 11019 11019 11019 11018 11018 11017 11017 11017 11017 11016 11015 11014 11013 11012 11011 11010 11009 11008 11006 11004 11003 11001 11000 10998 10997 10995 10994 10993 10992 10991 10990 10989 10988 10987 10986 10985 10984 10983 10982 10981 10981 10980 10980 10980 10980 10980 10980 10980 10979 10979 10979 10979 10979 10978 10978 10978 10979 10979 10979 10979 10979 10979 10978 10978 10978 10977 10977 10977 10977 10977 10977 10976 10976 10976 10975 10975 10975 10975 10974 10974 10974 10975
11018 11019 11019 11019 11020 11020 11020 11019 11019 11019 11019 11018 11018 11017 11016 11015 11014 11013 11012 11011 11010 11008 11007 11005 11004 11002 11001 11000 10998 10997 10996 10995 10994 10993 10992 10991 10990 10989 10988 10988 10986 10985 10984 10984 10983 10983 10984 10984 10984 10983 10983 10983 10983 10983 10982 10982 10982 10982 10981 10981 10981 10981 10981 10981 10981 10981 10980 10980 10980 10980 10980 10979 10979 10979 10979 10979 10978 10978 10978 10977 10977 10977 10977 10977 10977
11018 11019 11020 11020 11020 11021 11021 11021 11021 11020 11020 11020 11020 11019 11018 11017 11016 11015 11014 11013 11012 11011 11009 11008 11006 11004 11003 11002 11001 11000 10999 10998 10997 10996 10995 10994 10993 10992 10991 10990 10989 10988 10987 10987 10987 10987 10987 10987 10987 10987 10986 10986 10986 10986 10985 10985 10985 10985 10985 10984 10984 10984 10984 10984 10984 10983 10983 10983 10982 10982 10982 10982 10981 10981 10981 10981 10980 10980 10980 10980 10980 10980 10980 10980 10980
11019 11019 11020 11021 11021 11022 11022 11022 11022 11022 11022 11022 11021 11021 11020 11019 11018 11017 11016 11015 11014 11013 11012 11010 11008 11007 11006 11005 11004 11002 11002 11001 11000 10999 10998 10997 10996 10995 10994 10993 10992 10991 10991 10990 10990 10990 10990 10990 10990 10989 10989 10988 10988 10988 10988 10988 10988 10988 10988 10987 10987 10986 10986 10986 10986 10986 10986 10985 10985 10985 10984 10984 10984 10984 10984 10983 10983 10982 10982 10982 10982 10982 10983 10982 10982
11019 11020 11020 11021 11022 11022 11023 11023 11023 11023 11023 11023 11023 11023 11022 11021 11020 11019 11018 11017 11016 11015 11014 11012 11011 11009 11008 11007 11006 11005 11004 11003 11002 11002 11001 11001 11000 10999 10998 10997 10995 10994 10994 10993 10993 10993 10993 10992 10992 10992 10991 10991 10991 10991 10991 10991 10991 10991 10990 10990 10989 10989 10989 10989 10989 10989 10988 10988 10988 10987 10987 10987 10987 10987 10986 10986 10985 10985 10985 10985 10985 10985 10985 10984 10984
11019 11020 11020 11021 11022 11023 11023 11023 11024 11024 11024 11024 11024 11024 11024 11023 11022 11021 11020 11019 11018 11017 11016 11015 11013 11012 11011 11010 11009 11007 11007 11006 11005 11005 11005 11004 11004 11003 11002 11000 10999 10998 10997 10996 10996 10995 10995 10995 10995 10994 10994 10993 10993 10993 10993 10993 10993 10993 10992 10992 10991 10991 10991 10991 10992 10991 10991 10991 10990 10990 10990 10990 10990 10989 10989 10989 10988 10988 10987 10987 10987 10987 10986 10986 10986
11019 11020 11020 11021 11022 11023 11023 11024 11024 11025 11025 11024 11025 11025 11025 11025 11024 11022 11022 11021 11020 11019 11018 11017 11016 11015 11014 11013 11011 11010 11009 11009 11008 11008 11007 11007 11007 11006 11005 11004 11002 11001 10999 10998 10998 10998 10998 10997 10997 10997 10997 10996 10995 10995 10995 10995 10995 10995 10994 10994 10994 10994 10994 10994 10994 10994 10993 10993 10993 10993 10992 10992 10992 10992 10991 10991 10990 10990 10989 10989 10988 10988 10988 10988 10987
11019 11019 11020 11020 11021 11022 11023 11024 11024 11025 11025 11025 11025 11026 11026 11026 11025 11024 11024 11023 11022 11021 11020 11019 11018 11017 11016 11015 11014 11013 11012 11011 11010 11010 11010 11009 11009 11009 11008 11007 11005 11004 11002 11001 11001 11001 11001 11000 11000 11000 10999 10999 10998 10998 10997 10997 10997 10997 10996 10996 10996 10996 10996 10996 10996 10996 10995 10995 10995 10995 10995 10994 10994 10993 10993 10993 10992 10991 10991 10990 10990 10990 10989 10989 10988
11018 11018 11019 11019 11020 11021 11023 11024 11024 11025 11025 11026 11026 11026 11026 11026 11026 11026 11025 11025 11024 11023 11022 11021 11020 11019 11018 11017 11016 11015 11014 11014 11013 11012 11012 11012 11012 11011 11010 11009 11008 11007 11005 11005 11004 11003 11003 11003 11003 11002 11002 11001 11001 11000 11000 10999 10999 10999 10998 10998 10998 10998 10998 10998 10998 10998 10997 10997 10997 10997 10996 10996 10996 10995 10994 10994 10993 10993 10992 10991 10991 10991 10990 10990 10989
11016 11017 11018 11018 11019 11020 11022 11023 11024 11025 11025 11026 11027 11027 11027 11027 11026 11026 11027 11026 11026 11025 11024 11023 11022 11021 11020 11019 11018 11017 11016 11016 11015 11014 11014 11014 11014 11013 11012 11012 11011 11009 11008 11008 11007 11006 11006 11006 11005 11005 11004 11003 11003 11003 11002 11002 11001 11001 11000 11000 11000 11000 11000 11000 11000 11000 10999 10999 10999 10998 10998 10998 10997 10996 10996 10995 10994 10994 10993 10992 10992 10992 10991 10991 10990
11015 11016 11017 11017 11018 11019 11020 11022 11024 11024 11025 11026 11027 11027 11028 11028 11027 11027 11027 11027 11027 11026 11025 11025 11024 11023 11022 11021 11020 11019 11018 11018 11017 11017 11017 11016 11016 11015 11014 11014 11013 11012 11011 11010 11009 11009 11008 11008 11008 11007 11006 11006 11005 11005 11004 11004 11003 11003 11003 11003 11003 11002 11002 11002 11002 11002 11001 11001 11000 11000 10999 10999 10998 10998 10997 10996 10995 10994 10994 10993 10993 10992 10992 10991 10990
11015 11016 11016 11017 11017 11018 11019 11021 11023 11024 11025 11026 11027 11028 11028 11028 11028 11028 11028 11028 11028 11027 11027 11026 11025 11024 11023 11022 11022 11021 11021 11020 11019 11019 11019 11018 11018 11017 11016 11015 11015 11014 11013 11012 11012 11011 11011 11010 11010 11009 11009 11008 11008 11007 11007 11006 11006 11005 11005 11005 11005 11005 11004 11004 11004 11003 11003 11002 11001 11001 11000 11000 10999 10998 10998 10997 10996 10995 10994 10994 10994 10993 10992 10991 10991
11013 11014 11015 11016 11016 11017 11018 11019 11021 11023 11024 11025 11027 11028 11028 11028 11029 11029 11028 11028 11028 11028 11027 11027 11026 11026 11025 11024 11023 11023 11023 11022 11022 11021 11020 11020 11019 11019 11018 11017 11017 11016 11015 11015 11015 11014 11013 11013 11012 11012 11011 11011 11010 11010 11009 11009 11008 11008 11007 11007 11007 11007 11006 11006 11005 11004 11004 11003 11002 11002 11001 11001 11000 10999 10998 10997 10997 10996 10995 10994 10994 10994 10993 10992 10991
11011 11012 11013 11014 11015 11016 11017 11018 11020 11022 11024 11025 11027 11028 11028 11028 11029 11029 11029 11028 11028 11028 11028 11028 11028 11027 11026 11026 11025 11025 11024 11024 11023 11023 11022 11021 11021 11020 11020 11020 11019 11018 11018 11017 11017 11016 11016 11015 11015 11014 11014 11014 11013 11012 11012 11011 11011 11010 11010 11010 11009 11009 11008 11007 11007 11006 11005 11004 11003 11003 11002 11002 11001 11000 10999 10998 10997 10997 10996 10995 10995 10994 10993 10992 10992
11008 11010 11011 11012 11013 11014 11015 11017 11019 11020 11023 11025 11026 11027 11027 11027 11028 11028 11029 11029 11029 11029 11029 11029 11029 11028 11028 11027 11027 11026 11026 11025 11025 11024 11023 11023 11022 11022 11021 11021 11021 11021 11020 11020 11019 11019 11018 11018 11018 11017 11017 11016 11016 11015 11015 11014 11013 11013 11013 11012 11011 11011 11010 11009 11008 11007 11006 11005 11005 11004 11003 11003 11002 11001 11000 10999 10998 10997 10996 10996 10995 10995 10994 10993 10992
11005 11008 11009 11010 11011 11012 11013 11015 11017 11019 11021 11023 11025 11025 11026 11026 11027 11027 11028 11029 11029 11030 11030 11030 11030 11029 11029 11029 11028 11027 11027 11026 11026 11025 11025 11024 11024 11023 11023 11023 11023 11022 11022 11022 11021 11021 11020 11020 11020 11020 11019 11019 11018 11018 11017 11017 11016 11016 11015 11015 11014 11013 11012 11011 11010 11009 11008 11007 11006 11005 11004 11003 11002 11002 11001 11000 10999 10998 10997 10997 10996 10995 10995 10994 10993
11002 11005 11006 11007 11009 11010 11012 11013 11015 11017 11019 11021 11023 11024 11024 11024 11026 11027 11027 11028 11029 11030 11031 11031 11030 11030 11030 11030 11029 11028 11027 11027 11026 11026 11026 11025 11025 11025 11024 11024 11024 11024 11024 11023 11023 11023 11023 11022 11022 11022 11022 11022 11021 11021 11020 11020 11019 11018 11018 11017 11016 11015 11014 11013 11012 11011 11010 11009 11008 11007 11006 11005 11004 11003 11002 11001 11000 10999 10998 10998 10997 10997 10996 10995 10994
10999 11001 11002 11004 11006 11008 11010 11012 11013 11015 11017 11019 11020 11022 11023 11023 11024 11026 11026 11027 11028 11029 11029 11030 11030 11030 11030 11030 11030 11029 11028 11027 11027 11027 11027 11026 11026 11026 11026 11026 11026 11025 11025 11025 11025 11025 11025 11025 11025 11024 11024 11024 11024 11023 11023 11022 11021 11021 11020 11019 11019 11018 11017 11016 11015 11014 11012 11011 11010 11009 11008 11007 11006 11005 11003 11002 11002 11001 11000 11000 10999 10998 10998 10997 10996
10996 10999 11000 11001 11004 11005 11007 11010 11012 11014 11016 11017 11018 11020 11021 11022 11023 11024 11025 11025 11026 11026 11027 11027 11028 11029 11029 11029 11030 11030 11029 11029 11028 11028 11028 11027 11027 11027 11027 11027 11027 11027 11026 11026 11026 11027 11027 11027 11027 11027 11027 11026 11026 11025 11025 11024 11023 11023 11022 11021 11021 11020 11019 11018 11017 11016 11015 11014 11013 11012 11011 11009 11008 11007 11006 11005 11004 11003 11003 11002 11001 11001 11000 10999 10999
10994 10997 10998 11000 11002 11003 11005 11007 11010 11012 11014 11015 11016 11018 11019 11020 11021 11022 11023 11023 11023 11024 11024 11025 11026 11027 11028 11028 11029 11030 11030 11030 11029 11029 11029 11028 11028 11028 11028 11028 11028 11028 11028 11028 11028 11028 11028 11028 11028 11028 11028 11028 11028 11027 11027 11026 11025 11025 11024 11023 11023 11022 11021 11020 11020 11019 11018 11017 11016 11014 11013 11012 11011 11010 11009 11008 11007 11006 11006 11005 11005 11004 11003 11003 11002
10991 10995 10996 10998 10999 11002 11004 11006 11008 11010 11012 11013 11015 11016 11018 11019 11020 11021 11022 11022 11022 11022 11022 11023 11024 11025 11026 11028 11029 11029 11030 11030 11030 11029 11029 11029 11029 11029 11029 11029 11029 11029 11029 11029 11029 11029 11029 11029 11029 11029 11029 11029 11029 11029 11029 11029 11028 11027 11026 11026 11025 11024 11024 11023 11022 11021 11020 11020 11018 11017 11016 11015 11014 11013 11012 11012 11011 11010 11010 11009 11009 11008 11008 11007 11006
10988 10991 10993 10994 10996 10999 11001 11003 11006 11008 11009 11011 11013 11015 11016 11017 11018 11019 11020 11020 11020 11021 11022 11022 11023 11024 11025 11026 11028 11028 11029 11030 11030 11031 11030 11030 11030 11030 11030 11030 11030 11030 11030 11030 11030 11030 11030 11030 11030 11030 11030 11030 11030 11031 11031 11030 11030 11029 11029 11028 11028 11027 11026 11026 11025 11024 11023 11022 11022 11021 11020 11019 11018 11017 11016 11015 11015 11014 11014 11013 11013 11013 11012 11012 11011
10983 10986 10988 10990 10991 10994 10997 11000 11003 11005 11008 11009 11011 11012 11014 11015 11016 11017 11018 11019 11019 11020 11021 11022 11022 11023 11024 11024 11026 11027 11028 11029 11030 11031 11031 11031 11031 11031 11031 11030 11030 11030 11031 11031 11031 11031 11031 11031 11031 11031 11031 11031 11031 11031 11032 11032 11031 11031 11031 11030 11030 11029 11029 11028 11027 11027 11026 11025 11024 11024 11023 11022 11021 11020 11020 11019 11018 11018 11018 11017 11017 11017 11017 11017 11016
10980 10982 10984 10986 10988 10990 10993 10997 11000 11003 11005 11005 11006 11008 11011 11012 11013 11014 11016 11018 11018 11019 11020 11021 11022 11022 11022 11023 11024 11025 11026 11028 11029 11029 11030 11031 11031 11031 11031 11031 11031 11031 11031 11031 11031 11031 11032 11032 11032 11032 11032 11032 11032 11032 11032 11033 11032 11032 11032 11032 11031 11031 11031 11030 11030 11029 11028 11028 11027 11026 11026 11025 11025 11024 11023 11023 11022 11022 11021 11021 11021 11021 11021 11021 11021
10975 10978 10980 10982 10983 10986 10990 10994 10997 11000 11000 11000 11001 11004 11007 11009 11011 11012 11015 11016 11017 11018 11019 11020 11021 11021 11021 11022 11023 11024 11025 11026 11027 11027 11028 11029 11029 11030 11030 11031 11031 11031 11031 11031 11031 11031 11032 11032 11032 11032 11032 11033 11033 11033 11033 11033 11033 11033 11033 11032 11032 11032 11032 11032 11032 11031 11031 11030 11030 11029 11028 11028 11028 11027 11027 11026 11026 11025 11025 11025 11025 11025 11025 11025 11025
10969 10971 10974 10976 10979 10983 10987 10989 10992 10994 10994 10994 10996 11000 11003 11006 11008 11011 11013 11013 11014 11015 11017 11019 11020 11020 11020 11020 11021 11022 11023 11024 11025 11025 11025 11026 11027 11028 11028 11029 11030 11030 11031 11031 11031 11031 11031 11032 11032 11032 11032 11032 11032 11033 11033 11033 11033 11033 11033 11033 11033 11033 11033 11033 11033 11033 11032 11032 11032 11031 11031 11030 11030 11030 11030 11029 11029 11029 11029 11028 11028 11028 11028 11028 11028
10963 10966 10969 10972 10975 10980 10984 10985 10987 10989 10987 10988 10992 10996 11000 11003 11006 11009 11009 11009 11010 11013 11015 11016 11017 11017 11017 11018 11019 11020 11021 11022 11022 11023 11023 11024 11025 11026 11026 11027 11028 11028 11029 11030 11030 11031 11031 11031 11031 11031 11032 11032 11032 11032 11032 11033 11033 11033 11033 11033 11033 11033 11033 11033 11034 11034 11033 11033 11033 11033 11032 11032 11032 11032 11032 11032 11032 11032 11031 11031 11031 11031 11030 11030 11031
10957 10960 10963 10965 10969 10974 10979 10981 10983 10983 10981 10983 10988 10991 10995 11000 11003 11005 11005 11005 11007 11011 11014 11014 11013 11013 11014 11016 11018 11019 11019 11020 11020 11020 11021 11022 11022 11023 11024 11025 11026 11026 11028 11028 11029 11030 11030 11031 11031 11031 11031 11031 11031 11032 11032 11032 11033 11033 11033 11033 11033 11033 11033 11033 11034 11034 11034 11034 11034 11034 11033 11033 11033 11033 11033 11033 11033 11033 11033 11033 11033 11033 11033 11032 11032
10951 10954 10957 10960 10963 10967 10972 10975 10977 10976 10973 10977 10983 10986 10990 10996 10999 10999 11000 11001 11004 11009 11012 11012 11009 11007 11010 11014 11016 11016 11016 11017 11018 11018 11019 11020 11021 11021 11021 11022 11023 11024 11025 11026 11027 11028 11029 11030 11031 11031 11030 11030 11030 11031 11031 11032 11032 11032 11032 11033 11033 11033 11033 11033 11033 11034 11034 11034 11034 11034 11034 11034 11034 11034 11034 11034 11034 11034 11035 11035 11035 11035 11035 11034 11034
10944 10947 10951 10953 10955 10959 10963 10967 10971 10971 10969 10972 10976 10979 10985 10990 10992 10993 10995 10997 11001 11004 11007 11006 11004 11004 11007 11011 11013 11013 11012 11014 11015 11016 11017 11018 11018 11018 11018 11018 11020 11021 11023 11024 11025 11026 11027 11028 11029 11029 11029 11029 11029 11029 11030 11030 11031 11031 11031 11032 11032 11033 11033 11033 11033 11033 11033 11034 11034 11034 11034 11034 11034 11034 11034 11034 11034 11035 11035 11035 11035 11035 11035 11035 11035
10936 10939 10942 10943 10946 10951 10955 10959 10964 10965 10965 10967 10969 10972 10978 10982 10985 10988 10990 10993 10996 10999 11000 11000 11001 11002 11004 11007 11009 11010 11009 11010 11012 11013 11014 11015 11015 11015 11014 11015 11016 11019 11020 11022 11023 11024 11024 11025 11027 11027 11027 11027 11027 11028 11028 11029 11030 11030 11030 11031 11031 11032 11032 11032 11032 11032 11033 11033 11033 11033 11034 11034 11034 11034 11034 11034 11034 11035 11035 11035 11035 11035 11035 11035 11035
10928 10930 10932 10934 10939 10942 10944 10949 10955 10957 10958 10960 10962 10965 10971 10975 10978 10982 10984 10987 10991 10993 10994 10994 10997 11000 11001 11003 11005 11006 11006 11006 11008 11009 11010 11011 11011 11012 11012 11012 11014 11016 11018 11020 11020 11021 11022 11023 11024 11025 11026 11026 11025 11025 11026 11027 11028 11029 11029 11029 11030 11030 11031 11031 11032 11032 11032 11032 11032 11033 11033 11033 11034 11034 11034 11034 11034 11034 11034 11035 11035 11035 11035 11035 11035
10920 10922 10924 10927 10930 10932 10934 10940 10946 10949 10951 10953 10956 10959 10964 10968 10972 10975 10977 10980 10984 10986 10987 10988 10992 10996 10998 10999 11001 11002 11002 11003 11004 11005 11006 11007 11008 11009 11010 11011 11012 11013 11015 11017 11018 11019 11019 11020 11021 11023 11023 11023 11023 11023 11023 11025 11026 11026 11027 11027 11028 11029 11030 11031 11031 11031 11031 11031 11031 11032 11032 11032 11033 11033 11033 11033 11033 11033 11034 11034 11034 11034 11034 11034 11034
10910 10914 10918 10919 10920 10922 10925 10930 10936 10941 10945 10948 10950 10953 10957 10961 10965 10967 10970 10974 10978 10980 10981 10983 10986 10990 10992 10994 10996 10997 10999 10999 11000 11001 11002 11002 11004 11006 11007 11008 11009 11011 11012 11014 11015 11016 11017 11017 11018 11019 11020 11020 11020 11020 11020 11021 11022 11023 11023 11024 11025 11027 11028 11029 11030 11030 11030 11030 11030 11030 11031 11031 11031 11031 11032 11032 11032 11032 11032 11032 11033 11033 11033 11033 11033
10898 10903 10907 10908 10909 10912 10915 10919 10926 10933 10938 10942 10944 10946 10949 10954 10957 10960 10963 10967 10971 10974 10976 10977 10980 10983 10986 10988 10990 10992 10994 10995 10995 10996 10997 10999 11000 11001 11002 11004 11006 11007 11008 11010 11011 11013 11014 11014 11014 11015 11016 11016 11016 11016 11016 11016 11017 11018 11019 11020 11022 11023 11025 11026 11028 11029 11029 11029 11029 11029 11029 11029 11029 11029 11029 11029 11029 11029 11029 11030 11030 11031 11031 11032 11032
10884 10890 10894 10897 10899 10903 10905 10909 10917 10924 10930 10934 10937 10939 10943 10947 10950 10952 10956 10959 10963 10967 10969 10970 10973 10977 10981 10982 10984 10987 10989 10989 10990 10990 10991 10993 10995 10996 10998 11000 11002 11003 11004 11006 11007 11009 11010 11010 11011 11012 11011 11011 11012 11012 11011 11011 11013 11014 11015 11016 11018 11019 11021 11023 11025 11026 11026 11026 11027 11027 11027 11027 11027 11027 11027 11026 11026 11026 11026 11027 11028 11028 11029 11030 11030
10871 10876 10880 10885 10889 10893 10896 10900 10907 10914 10920 10925 10929 10932 10936 10940 10943 10946 10949 10952 10955 10959 10961 10964 10967 10971 10975 10976 10978 10982 10983 10983 10983 10984 10985 10986 10989 10991 10994 10995 10996 10998 10999 11000 11002 11003 11004 11005 11007 11008 11007 11007 11008 11008 11007 11007 11009 11010 11011 11012 11014 11015 11017 11019 11021 11022 11023 11023 11024 11025 11025 11025 11025 11025 11024 11024 11023 11023 11023 11024 11025 11025 11026 11027 11027
10860 10864 10868 10873 10878 10883 10887 10892 10897 10903 10909 10916 10921 10925 10929 10933 10936 10940 10943 10945 10948 10951 10954 10958 10961 10965 10968 10970 10973 10975 10976 10977 10977 10978 10980 10981 10983 10986 10988 10989 10990 10991 10992 10993 10995 10997 10999 11000 11002 11003 11004 11004 11004 11003 11003 11004 11004 11005 11006 11008 11010 11012 11013 11015 11017 11018 11019 11020 11021 11022 11022 11022 11022 11022 11022 11022 11021 11021 11020 11021 11022 11022 11022 11024 11024
10851 10855 10859 10863 10868 10873 10878 10883 10889 10895 10901 10907 10912 10917 10921 10925 10929 10933 10936 10938 10941 10944 10947 10951 10955 10958 10961 10964 10966 10969 10970 10971 10971 10972 10974 10976 10978 10980 10982 10983 10985 10985 10985 10986 10989 10991 10994 10995 10997 10998 10999 11000 11000 10999 10999 11000 10999 10999 11001 11003 11005 11007 11009 11011 11013 11014 11015 11016 11017 11018 11019 11019 11019 11019 11019 11019 11019 11018 11017 11017 11018 11019 11019 11020 11020
10843 10848 10852 10856 10859 10863 10868 10873 10879 10885 10892 10898 10904 10908 10913 10917 10920 10924 10927 10930 10933 10936 10939 10942 10946 10950 10953 10956 10959 10961 10963 10964 10965 10966 10968 10970 10972 10974 10975 10977 10979 10979 10979 10980 10982 10985 10988 10990 10991 10992 10993 10994 10995 10994 10994 10994 10993 10994 10996 10999 11001 11002 11004 11006 11008 11010 11011 11012 11013 11014 11015 11015 11015 11015 11016 11016 11016 11015 11014 11014 11014 11015 11015 11016 11016
10834 10839 10843 10847 10851 10854 10859 10864 10869 10875 10881 10888 10894 10899 10904 10908 10911 10914 10918 10921 10924 10927 10930 10933 10937 10940 10945 10948 10951 10954 10955 10957 10958 10960 10962 10964 10965 10967 10968 10970 10972 10972 10972 10974 10976 10979 10982 10985 10986 10987 10988 10989 10990 10989 10989 10988 10988 10990 10993 10996 10998 10999 11001 11002 11003 11004 11005 11007 11008 11009 11010 11011 11011 11011 11011 11012 11012 11012 11011 11010 11010 11010 11010 11011 11012
10821 10826 10830 10835 10840 10844 10849 10855 10860 10865 10871 10876 10882 10887 10892 10897 10900 10904 10907 10911 10914 10918 10921 10924 10927 10930 10934 10939 10942 10945 10947 10949 10951 10953 10955 10957 10959 10960 10960 10962 10964 10965 10965 10967 10969 10972 10974 10977 10980 10981 10983 10984 10984 10983 10983 10983 10984 10986 10990 10992 10994 10996 10997 10998 10999 10999 11000 11001 11002 11004 11005 11006 11007 11007 11007 11007 11008 11008 11008 11007 11006 11005 11005 11006 11006
10805 10811 10816 10822 10828 10833 10839 10844 10849 10854 10859 10864 10870 10874 10879 10883 10888 10892 10896 10900 10904 10908 10911 10915 10918 10921 10924 10928 10932 10935 10938 10941 10943 10945 10947 10949 10951 10953 10953 10953 10955 10956 10958 10959 10961 10964 10966 10969 10971 10973 10975 10977 10977 10977 10977 10978 10979 10982 10984 10987 10988 10991 10992 10993 10994 10995 10995 10995 10996 10997 10999 11000 11001 11002 11002 11002 11003 11003 11003 11003 11003 11002 11001 11000 11000
10791 10798 10804 10810 10816 10821 10827 10832 10836 10841 10846 10851 10856 10861 10865 10870 10874 10879 10884 10889 10893 10897 10901 10905 10909 10912 10914 10917 10921 10925 10928 10931 10933 10936 10939 10941 10942 10944 10945 10945 10945 10947 10948 10950 10952 10955 10957 10960 10962 10965 10967 10968 10970 10970 10971 10972 10973 10975 10977 10980 10981 10983 10985 10987 10988 10990 10990 10990 10990 10991 10992 10993 10994 10995 10995 10996 10996 10997 10998 10998 10998 10998 10997 10996 10995
10779 10786 10792 10797 10802 10808 10813 10818 10823 10828 10833 10838 10843 10847 10852 10857 10862 10867 10872 10877 10882 10886 10891 10894 10898 10901 10905 10908 10910 10913 10916 10919 10922 10925 10928 10931 10933 10934 10935 10935 10936 10937 10938 10941 10943 10945 10948 10950 10952 10955 10957 10959 10960 10962 10963 10964 10966 10967 10969 10971 10973 10975 10977 10979 10981 10983 10984 10984 10984 10985 10986 10987 10987 10988 10988 10988 10989 10990 10991 10992 10992 10992 10992 10992 10991
10767 10774 10778 10783 10788 10793 10799 10804 10810 10815 10821 10826 10831 10836 10840 10845 10849 10854 10859 10864 10869 10874 10878 10882 10886 10889 10893 10896 10899 10901 10904 10907 10910 10913 10916 10920 10922 10923 10924 10924 10926 10927 10929 10931 10933 10935 10937 10939 10941 10944 10946 10949 10951 10952 10953 10955 10956 10958 10960 10961 10963 10966 10968 10970 10972 10974 10975 10976 10977 10978 10979 10979 10980 10980 10981 10981 10982 10983 10984 10984 10984 10985 10985 10985 10986
10754 10759 10764 10769 10774 10779 10785 10791 10796 10802 10808 10813 10818 10823 10827 10832 10836 10840 10845 10850 10855 10860 10864 10869 10872 10876 10879 10883 10886 10889 10892 10894 10897 10900 10903 10907 10910 10911 10912 10914 10916 10918 10920 10921 10923 10924 10926 10928 10929 10931 10934 10937 10940 10942 10943 10944 10946 10948 10950 10951 10953 10955 10958 10960 10962 10964 10965 10967 10969 10970 10971 10971 10971 10972 10973 10974 10974 10975 10976 10976 10976 10977 10978 10979 10979
10736 10742 10748 10754 10760 10766 10772 10778 10783 10789 10794 10799 10805 10810 10815 10819 10823 10827 10831 10835 10840 10845 10850 10855 10859 10863 10867 10870 10873 10877 10879 10882 10884 10887 10890 10893 10897 10899 10901 10902 10905 10907 10909 10911 10913 10914 10915 10917 10918 10919 10922 10925 10928 10930 10932 10933 10935 10937 10940 10942 10943 10945 10947 10949 10951 10954 10955 10956 10958 10960 10962 10962 10962 10963 10964 10965 10965 10966 10967 10968 10969 10970 10970 10971 10972
10719 10726 10731 10737 10746 10754 10761 10767 10772 10776 10781 10786 10791 10797 10802 10807 10811 10815 10818 10822 10826 10831 10836 10840 10845 10849 10853 10857 10860 10863 10866 10869 10871 10874 10877 10880 10883 10885 10888 10890 10893 10895 10898 10900 10902 10903 10905 10906 10907 10908 10910 10912 10915 10918 10920 10922 10924 10926 10928 10931 10933 10935 10937 10939 10940 10943 10945 10946 10947 10949 10951 10952 10953 10953 10954 10955 10956 10957 10958 10959 10960 10961 10962 10963 10964
10708 10713 10718 10726 10735 10744 10751 10757 10761 10765 10770 10774 10779 10785 10790 10794 10798 10802 10805 10809 10813 10817 10822 10826 10830 10834 10838 10842 10845 10848 10852 10855 10858 10861 10864 10867 10870 10872 10874 10877 10880 10883 10886 10888 10890 10892 10894 10895 10896 10898 10899 10900 10903 10905 10907 10910 10912 10915 10917 10919 10922 10924 10926 10928 10930 10932 10934 10936 10936 10937 10939 10941 10942 10943 10944 10945 10946 10947 10949 10950 10951 10951 10952 10953 10954